Location: Unspecified
(0.0000°N, 0.0000°E)
Time: 13:25:52
(UTC+00:00)

Altair - Visible Passes

Search period start: 20 July 2019 00:00
Search period end: 30 July 2019 00:00
Orbit: 1501 x 1683 km, 47.2° (Epoch: 19 July)

Date Brightness Start Highest point End Pass type
(mag) Time Alt. Az. Time Alt. Az. Time Alt. Az.
20 Jul 8.5 19:22:30 10° N 19:30:33 30° NE 19:34:19 23° E visible
20 Jul 8.2 21:25:35 10° NW 21:32:22 47° WNW 21:32:22 47° WNW visible
21 Jul 8.6 18:57:43 10° N 19:05:20 26° NE 19:10:52 16° E visible
21 Jul 7.7 21:00:19 10° NW 21:08:55 64° W 21:08:55 64° W visible
22 Jul 8.7 18:33:01 10° N 18:40:07 23° NE 18:47:22 10° E visible
22 Jul 7.5 20:35:06 10° NW 20:44:49 75° SW 20:45:32 72° SSW visible
23 Jul 7.5 20:09:55 10° NW 20:19:38 83° SW 20:22:11 57° SSE visible
23 Jul 9.6 22:19:07 10° W 22:20:15 12° WSW 22:20:15 12° WSW visible
24 Jul 7.5 19:44:45 10° NW 19:54:27 89° NE 19:58:54 39° SE visible
24 Jul 9.4 21:53:07 10° W 21:56:58 17° WSW 21:56:58 17° WSW visible
25 Jul 7.5 19:19:38 10° NW 19:29:16 81° NE 19:35:39 26° SE visible
25 Jul 9.1 21:27:16 10° W 21:33:43 21° SW 21:33:43 21° SW visible
26 Jul 7.6 18:54:33 10° NNW 19:04:06 73° NE 19:12:26 16° SE visible
26 Jul 8.9 21:01:31 10° W 21:08:58 24° SW 21:10:31 23° SW visible
27 Jul 9.0 05:41:42 10° S 05:50:01 31° SE 05:58:02 10° ENE visible
27 Jul 7.7 18:29:29 10° NNW 18:38:56 65° NE 18:48:45 10° SE visible
27 Jul 8.9 20:35:52 10° WNW 20:43:42 27° SW 20:47:19 22° SSW visible
28 Jul 9.1 05:16:51 10° S 05:24:48 28° SE 05:32:28 10° ENE visible
28 Jul 8.8 20:10:17 10° WNW 20:18:28 31° SW 20:24:09 18° S visible
29 Jul 9.2 04:52:01 10° S 04:59:33 24° SE 05:06:50 10° E visible
29 Jul 8.7 19:44:46 10° WNW 19:53:14 35° SW 20:00:58 13° S visible
